Marshfield, WI

7:19 AM CST on February 08, 2016 (GMT -0600)
Marshfield Municipal

Weather History for KMFI - September, 2014

Change the Weather History Date:

Friday, September 26, 2014

  Actual Average Record
Temperature  
Mean Temperature 62 °F -  
Max Temperature 75 °F 66 °F 85 °F (1923)
Min Temperature 48 °F 42 °F 24 °F (1926)
Degree Days  
Heating Degree Days 4    
Growing Degree Days 12 (Base 50)    
Moisture  
Dew Point 52 °F    
Average Humidity 74    
Maximum Humidity 97    
Minimum Humidity 43    
Precipitation  
Precipitation 0.00 in - - ()
Sea Level Pressure  
Sea Level Pressure 30.25 in    
Wind  
Wind Speed 3 mph (ESE)    
Max Wind Speed 10 mph    
Max Gust Speed -    
Visibility 7 miles    
Events      
Averages and records for this station are not official NWS values.
T = Trace of Precipitation, MM = Missing Value Source: NWS Daily Summary

Daily Weather History Graph

Daily Weather History Graph

Search for Another Location

Airport or City:

Trip Planner

Search our weather history database for the weather conditions in past years. The results will help you decide how hot, cold, wet, or windy it might be!

Date:

Astronomy

Sep. 26, 2014 Rise Set
Actual Time 6:52 AM CDT 6:50 PM CDT
Civil Twilight 6:23 AM CDT 7:19 PM CDT
Nautical Twilight 5:49 AM CDT 7:53 PM CDT
Astronomical Twilight 5:14 AM CDT 8:28 PM CDT
Moon 9:15 AM CDT (9/26) 8:03 PM CDT (9/26)
Length of Visible Light 12h 56m
Length of Day
11h 58m
Waxing Crescent, 6% of the Moon is Illuminated
Sep 26
Waxing Crescent
Oct 1
First Quarter
Oct 8
Full
Oct 15
Last Quarter
Oct 23
New

Hourly Weather History & Observations

Time (CDT) Temp. Dew Point Humidity Pressure Visibility Wind Dir Wind Speed Gust Speed Precip Events Conditions
12:54 AM 53.1 °F 51.1 °F 93% 30.24 in 7.0 mi Calm Calm - N/A   Clear
1:54 AM 52.0 °F 51.1 °F 97% 30.24 in 7.0 mi Calm Calm - N/A   Clear
2:54 AM 51.1 °F 48.9 °F 92% 30.24 in 5.0 mi Calm Calm - N/A   Clear
3:54 AM 50.0 °F 48.9 °F 96% 30.24 in 5.0 mi Calm Calm - N/A   Clear
4:54 AM 48.9 °F 46.9 °F 93% 30.24 in 4.0 mi ENE 3.5 mph - N/A   Clear
5:54 AM 48.9 °F 46.9 °F 93% 30.25 in 3.0 mi NE 3.5 mph - N/A   Clear
6:54 AM 48.0 °F 46.0 °F 93% 30.26 in 3.0 mi ENE 3.5 mph - N/A   Clear
7:08 AM 48.9 °F 46.9 °F 93% 30.25 in 2.5 mi ENE 4.6 mph - N/A   Clear
7:37 AM 50.0 °F 48.9 °F 96% 30.25 in 3.0 mi ENE 3.5 mph - N/A   Clear
7:54 AM 53.1 °F 51.1 °F 93% 30.27 in 2.5 mi East 3.5 mph - N/A   Clear
8:07 AM 54.0 °F 51.1 °F 90% 30.26 in 3.0 mi East 4.6 mph - N/A   Clear
8:54 AM 57.9 °F 54.0 °F 87% 30.28 in 5.0 mi East 4.6 mph - N/A   Clear
9:54 AM 63.0 °F 55.0 °F 75% 30.28 in 8.0 mi SE 4.6 mph - N/A   Clear
10:54 AM 69.1 °F 57.0 °F 65% 30.28 in 10.0 mi East 4.6 mph - N/A   Clear
11:54 AM 73.0 °F 55.0 °F 53% 30.27 in 10.0 mi South 4.6 mph - N/A   Clear
12:54 PM 73.9 °F 53.1 °F 48% 30.27 in 10.0 mi SE 10.4 mph - N/A   Clear
1:54 PM 75.0 °F 53.1 °F 46% 30.25 in 10.0 mi SSE 10.4 mph - N/A   Clear
2:54 PM 75.9 °F 52.0 °F 43% 30.24 in 10.0 mi SSE 10.4 mph - N/A   Clear
3:54 PM 75.9 °F 53.1 °F 45% 30.23 in 10.0 mi SE 9.2 mph - N/A   Clear
4:54 PM 75.0 °F 52.0 °F 44% 30.22 in 10.0 mi SSE 10.4 mph - N/A   Clear
5:54 PM 73.0 °F 53.1 °F 49% 30.22 in 10.0 mi SE 6.9 mph - N/A   Clear
6:54 PM 69.1 °F 55.0 °F 61% 30.22 in 10.0 mi ESE 4.6 mph - N/A   Clear
7:54 PM 64.0 °F 53.1 °F 67% 30.22 in 10.0 mi ESE 3.5 mph - N/A   Clear
8:54 PM 63.0 °F 53.1 °F 70% 30.23 in 10.0 mi ESE 3.5 mph - N/A   Clear
9:54 PM 61.0 °F 53.1 °F 75% 30.23 in 10.0 mi SE 3.5 mph - N/A   Clear
10:54 PM 61.0 °F 52.0 °F 72% 30.23 in 10.0 mi Calm Calm - N/A   Clear
11:54 PM 60.1 °F 53.1 °F 78% 30.22 in 10.0 mi Calm Calm - N/A   Clear